GREENCUBE (53106 NORAD) Tracking and Keplerian Element Data

This shows tracking and keplerian element data for the satellite.

Feedback or suggestion? Click here.




ElementValue
Catalog53106
NameGREENCUBE
Epoch Orbit4404
Epoch Day150.13546523
Epoch Year2024
RAAN199.1393
Inclination70.1363
Eccentricity0.0007665
Argument of Perigee111.3674
Mean Anonmoly248.7804
Mean Motion6.42557538
Decay Rate-3E-08
L11 53106U 22080B 24150.13546523 -.00000003 00000+0 00000+0 0 9990
L22 53106 70.1363 199.1393 0007665 111.3674 248.7804 6.42557538 44049



Live tracking and technical data element details for GREENCUBE (NORAD 53106). GREENCUBE can be tracked NOW for your location showing map with azimuth and elevation plus other details from your city location.







IsCatalogInMostPopularTable: catalog: 53106, numindb: 1521
Update: records affected: 1



GetName: 53106 GREENCUBE

Hit Count: updated at: Tue, 17 Sep 2024 12:32:36 GMT